Location: Spruce Knob
(38.6995°N, 79.5330°W)
Time: 13:44:53
(UTC-04:00)

MOZHAYETS 4 - Pass Details

Date: 30 May 2024
Orbit: 652 x 670 km, 98.3° (Epoch: 14 June)

Event Time Altitude Azimuth Distance (km) Brightness Sun altitude
Rises 03:17:02 0° 114° (ESE) 2,985 11.1 -23.1°
Reaches altitude 10° 03:20:42 10° 83° (E) 2,073 10.7 -22.7°
Maximum altitude 03:22:17 12° 63° (ENE) 1,957 10.9 -22.6°
Drops below altitude 10° 03:23:53 10° 42° (NE) 2,074 11.3 -22.4°
Sets 03:27:32 0° 11° (N) 2,987 12.2 -22.0°
